Theta_e
333 333 333 331 331 336 340 341 344 349 351 350 350 349 346 342 335 328 329 332 334 339 341 343 344 343 342 342 341 339 338 338 337 336 336 335 335 335 333 333 334 334 333 332 331 330 330 331 330 329 329 331 329 328 330 328 328 330 329 329 329 328 331 334 335 335 335 335 335 335 336 337 336 335 335 336 335 336 337 337 336 335 334 334 335
332 330 329 330 332 335 337 334 333 343 349 350 350 349 348 345 338 330 328 331 333 334 337 341 343 343 343 343 342 341 339 338 337 338 337 337 335 335 334 333 333 335 334 333 333 332 332 331 330 329 328 329 329 329 330 328 327 329 330 330 329 328 329 332 335 335 335 335 335 335 336 337 336 335 335 336 337 337 338 338 337 336 335 335 335
332 331 331 332 334 336 338 337 336 342 348 349 349 348 347 346 342 336 330 330 332 333 332 336 341 343 343 343 342 341 340 339 339 339 338 337 337 335 334 334 333 334 335 334 333 332 331 331 330 329 329 330 331 331 330 328 328 330 332 331 329 329 330 332 335 335 335 335 335 336 336 336 335 334 334 336 336 336 337 338 337 337 337 336 335
333 332 333 336 339 339 339 342 346 347 347 347 348 348 346 346 344 340 335 332 332 331 329 332 338 342 343 343 342 341 341 340 340 339 339 338 337 336 334 334 333 334 335 335 333 332 332 332 331 330 330 331 332 331 330 330 329 329 332 331 328 330 330 332 334 335 335 336 336 336 336 336 336 336 335 335 334 334 336 336 336 337 337 336 336
334 335 336 339 341 342 341 343 347 346 344 345 347 348 346 345 345 344 341 338 334 331 329 331 336 341 343 343 343 343 342 342 341 340 339 338 337 337 335 334 334 335 335 335 334 333 333 333 332 332 332 332 331 330 330 330 329 329 332 332 329 329 331 332 333 334 336 336 336 336 336 336 336 335 335 336 335 334 336 336 335 336 337 336 337
333 336 341 343 341 342 344 344 345 343 342 344 346 347 346 345 345 345 344 342 338 334 331 330 332 337 341 342 343 343 342 342 342 340 339 338 337 336 336 335 335 335 335 335 335 334 334 334 333 333 333 331 329 329 329 329 329 330 331 330 330 330 331 333 332 333 336 337 335 336 336 335 335 333 334 337 337 335 335 336 334 335 337 337 335
334 337 342 343 342 342 342 343 343 343 342 343 345 346 346 346 345 345 345 343 341 338 334 331 330 333 339 342 342 342 342 341 341 340 339 337 336 336 337 336 336 335 335 335 334 334 334 334 334 333 333 332 330 330 330 330 330 330 329 328 329 329 330 331 333 334 336 337 335 336 336 335 334 333 333 335 335 335 335 335 334 334 335 335 334
333 337 341 342 343 342 341 342 342 342 341 341 344 345 345 345 346 346 345 343 343 340 336 332 331 332 336 340 342 342 341 341 341 340 339 336 336 337 337 337 337 337 336 335 335 334 333 334 334 333 333 332 332 331 331 331 331 331 328 327 328 328 327 328 333 335 336 337 334 334 334 334 334 333 334 334 333 334 334 334 334 333 333 333 335
332 338 341 342 343 341 340 341 341 340 341 341 342 344 345 345 345 346 346 344 343 342 339 334 331 332 335 338 341 342 342 342 341 340 338 337 337 338 338 338 338 337 336 335 335 334 333 333 334 333 333 332 332 331 331 331 332 331 329 328 327 328 327 327 329 334 337 336 334 332 331 331 332 331 332 333 333 333 333 334 334 334 332 332 334
333 337 340 339 339 339 340 341 341 340 342 341 342 344 345 344 344 345 346 345 343 342 341 337 332 333 336 338 340 341 342 342 342 342 340 339 339 339 338 337 337 337 336 334 335 334 334 333 333 333 332 332 332 332 331 331 331 330 330 329 328 327 328 328 326 330 335 336 334 331 329 328 329 329 330 332 332 332 333 335 335 335 333 332 332
332 335 335 332 331 332 333 338 341 341 341 341 342 343 344 344 343 344 345 345 344 342 342 341 337 334 336 339 339 341 342 342 342 342 342 341 340 339 338 337 337 337 336 335 335 335 334 333 333 334 334 333 333 332 330 330 330 330 329 329 330 329 328 328 327 329 332 333 331 329 327 328 328 328 329 331 333 333 334 335 335 335 334 332 332
332 334 335 332 329 325 323 328 335 338 339 341 342 343 343 343 343 343 344 344 344 343 342 342 341 338 337 339 340 341 341 341 341 342 341 340 339 339 339 338 338 337 337 336 335 335 335 334 333 334 334 334 333 332 331 331 331 330 329 329 329 329 329 328 328 329 331 332 330 329 329 330 330 329 328 330 333 335 335 334 335 335 334 333 333
330 333 335 335 334 331 327 323 322 326 331 336 338 341 343 343 343 342 343 343 343 343 342 342 342 341 340 341 341 341 341 341 341 341 341 340 340 339 339 338 339 338 338 336 335 335 335 335 334 334 334 333 332 332 332 332 332 331 330 329 328 329 330 329 328 329 330 330 329 329 331 332 330 328 328 329 332 334 334 334 334 335 335 333 333
327 330 333 335 334 334 333 329 324 320 322 326 330 334 338 341 342 341 340 340 340 340 340 339 340 341 341 340 341 341 341 341 341 341 341 340 340 340 338 338 337 337 337 336 335 335 335 335 334 334 333 333 332 332 332 332 332 331 330 329 329 330 330 329 328 328 329 330 330 330 331 331 328 327 327 329 331 332 332 332 333 334 334 334 333
324 325 327 330 331 332 333 334 332 327 323 322 325 330 335 339 341 340 338 337 337 337 337 337 338 339 339 339 340 341 341 340 341 340 341 341 340 339 339 338 338 338 338 337 336 336 335 334 334 334 333 332 332 333 332 333 332 331 330 330 330 330 329 328 327 327 329 330 331 330 329 328 326 326 327 328 330 331 330 330 331 334 334 333 333
323 323 323 323 325 326 328 331 333 332 330 328 329 331 335 337 338 338 338 338 336 335 335 336 337 338 339 338 338 339 340 340 340 340 341 340 340 340 339 339 339 339 340 339 337 336 335 335 334 334 333 332 332 333 332 333 333 332 331 331 330 329 328 327 327 328 330 331 330 330 328 326 326 326 327 329 330 331 330 329 330 332 334 334 334
322 322 322 321 321 322 323 326 328 331 331 331 331 332 334 335 335 336 338 338 337 336 335 333 334 336 338 338 337 337 339 339 340 340 340 340 340 340 339 339 340 340 341 340 339 337 335 334 334 333 334 332 332 333 333 333 333 332 332 332 331 329 328 328 329 330 331 331 330 329 328 327 328 328 329 331 332 332 329 328 329 331 333 334 334
320 319 320 320 320 321 322 321 323 325 326 328 331 332 332 333 333 334 336 336 336 337 337 336 335 335 336 338 336 336 338 339 339 339 339 339 340 340 339 340 340 340 340 340 340 338 336 334 334 333 334 334 333 333 333 333 332 331 332 332 331 329 329 329 330 330 331 331 331 330 329 329 330 331 332 333 333 330 329 329 330 332 333 334 334
318 317 318 318 319 320 321 320 321 322 322 324 327 329 330 331 332 333 332 330 331 335 337 337 337 336 336 337 336 336 336 337 338 338 339 339 339 339 339 340 340 339 340 340 340 339 337 336 334 333 334 334 334 333 333 332 331 331 331 331 330 329 330 330 331 330 330 332 333 331 330 331 331 332 333 332 331 329 328 329 331 333 334 334 333
316 315 315 316 317 318 319 319 320 320 320 320 321 323 326 327 329 331 329 325 325 328 332 335 336 336 336 335 336 336 335 335 336 337 338 338 338 337 338 339 339 339 340 340 340 339 338 336 335 334 334 335 334 333 333 332 331 331 331 330 329 330 330 330 330 331 331 332 333 332 331 332 333 333 332 331 329 328 328 329 332 334 335 334 333
314 315 314 315 315 316 315 316 317 317 318 318 318 319 321 322 324 327 327 326 324 325 327 331 333 334 334 334 335 336 336 335 336 336 336 336 336 336 337 338 339 339 339 339 339 340 339 337 336 335 334 334 334 333 333 332 332 332 331 331 330 330 329 329 330 330 331 333 333 332 332 333 334 333 331 330 328 328 329 330 332 334 335 334 333
312 312 312 313 314 314 313 313 313 313 314 315 316 317 319 319 320 322 325 326 325 324 324 326 329 331 332 333 334 335 336 336 336 335 334 334 334 336 336 336 338 339 339 339 339 339 339 338 337 336 335 335 335 334 332 332 332 332 332 331 330 328 328 329 330 330 331 332 333 333 333 334 334 333 331 329 328 328 330 330 331 334 334 334 334
311 310 310 311 312 312 312 312 312 311 311 312 314 315 316 317 318 319 321 323 325 324 323 324 327 330 331 331 332 334 335 335 335 336 335 334 334 334 333 333 337 339 339 338 339 339 339 338 338 337 336 336 335 334 333 332 333 332 331 330 329 329 328 329 330 330 331 332 333 334 334 335 335 333 333 331 329 329 331 331 332 334 334 333 334
309 309 309 309 309 310 311 312 311 311 311 310 311 313 313 314 316 316 317 321 323 324 324 324 327 330 331 331 331 332 334 335 334 335 335 334 335 334 332 332 334 336 337 337 338 338 338 338 338 337 336 336 335 334 333 332 333 331 330 329 330 329 329 329 329 331 332 332 333 333 333 334 334 334 333 332 331 330 331 331 331 334 334 334 334
308 307 307 307 308 310 311 310 310 311 311 310 310 311 311 310 311 312 314 317 320 323 325 326 328 329 331 332 332 333 335 335 334 333 333 333 333 333 334 334 332 332 335 337 337 337 338 338 338 337 336 335 335 334 333 332 331 330 328 329 330 330 330 329 330 331 331 332 333 332 331 333 334 334 334 333 332 331 331 331 332 334 335 334 333
307 307 306 305 306 309 310 309 309 309 310 310 310 310 310 308 307 307 308 312 316 319 322 324 326 326 327 330 333 334 334 335 333 332 332 333 334 334 334 335 333 332 334 335 336 336 337 338 337 337 336 335 334 334 332 332 331 329 329 330 330 330 330 330 330 331 330 331 332 331 332 334 334 334 333 332 332 331 330 331 333 334 334 333 333
306 306 306 305 305 307 308 308 308 307 306 307 309 310 310 309 308 306 306 307 311 314 317 321 324 324 324 328 331 332 333 334 333 331 331 334 336 335 335 335 335 335 334 333 335 335 337 338 337 336 336 336 335 334 333 332 331 331 331 331 331 330 331 331 331 331 330 331 332 332 333 335 334 333 332 332 331 331 331 333 333 332 332 333 334
306 305 305 305 305 306 306 306 307 306 305 306 307 309 309 309 309 307 306 306 307 309 313 317 320 322 323 326 330 330 331 333 334 333 333 334 336 335 334 335 336 335 334 332 333 335 336 337 337 336 336 336 336 335 334 333 332 332 331 331 330 331 331 331 330 330 330 331 332 333 334 335 335 334 332 331 330 330 332 334 332 331 333 333 333
305 305 305 305 305 305 305 305 306 306 306 305 306 307 309 309 309 308 306 306 306 307 310 312 316 319 321 323 326 329 329 331 332 334 334 334 334 334 334 335 335 335 334 333 333 335 335 335 336 337 336 336 336 335 335 334 333 333 332 332 331 332 332 331 330 330 330 331 332 333 334 335 335 334 333 332 332 332 332 332 331 331 333 333 332
305 305 305 305 305 305 305 305 305 305 305 305 305 306 307 308 308 308 307 306 306 307 308 310 314 319 321 320 322 326 327 329 331 332 333 334 333 333 332 333 334 335 335 334 332 331 333 335 335 335 335 335 335 335 335 334 334 332 332 332 332 331 331 331 331 331 331 332 334 334 334 335 334 334 334 333 333 333 333 333 332 332 333 332 331
305 305 305 305 306 305 305 304 304 305 305 305 304 305 306 306 306 307 307 306 305 306 308 309 313 319 321 320 320 323 325 327 328 329 331 332 333 333 332 331 333 334 334 334 331 329 331 334 334 334 334 335 334 334 334 333 334 333 332 332 332 332 332 332 333 332 332 332 334 334 334 334 334 334 334 333 333 333 332 333 333 333 334 334 331
305 305 305 305 306 305 305 305 304 304 304 304 304 304 305 306 306 308 308 306 305 306 307 309 313 317 319 320 318 318 322 324 325 325 327 329 331 333 332 331 332 333 332 333 333 331 332 333 334 333 332 332 333 334 333 332 333 334 333 333 333 333 333 333 335 335 334 333 333 333 334 334 333 333 333 332 332 331 330 331 332 333 333 332 331
305 305 305 306 306 305 305 305 305 305 304 304 305 304 304 306 306 307 307 305 304 305 307 310 313 315 318 319 318 317 319 322 323 324 325 327 329 331 332 332 332 332 331 331 332 332 332 333 333 331 330 329 331 331 330 330 331 332 333 334 334 334 334 334 335 335 335 335 334 333 333 334 333 333 333 333 331 330 329 329 330 331 332 331 329
305 305 305 306 306 305 306 306 305 305 305 305 305 304 304 305 305 304 305 305 305 306 307 309 313 315 316 319 320 320 319 318 319 320 322 325 327 329 330 330 330 330 330 331 332 332 333 333 332 330 329 328 328 327 328 329 329 330 332 334 334 334 334 333 333 334 335 336 335 333 333 333 333 333 333 333 332 331 331 330 330 330 331 331 331
305 305 305 306 306 305 305 305 306 306 306 306 305 304 304 306 304 303 304 305 306 307 307 309 313 315 316 317 320 320 317 314 314 314 316 322 326 326 327 327 328 328 329 330 332 332 333 333 332 331 329 327 327 326 327 329 330 330 332 334 334 333 332 332 332 333 334 334 335 335 334 335 334 334 334 333 332 332 332 331 331 330 330 331 331
305 305 305 305 305 304 304 304 305 306 306 306 306 305 305 306 304 301 303 306 307 307 308 311 313 315 316 317 317 318 315 311 312 312 312 317 322 323 325 325 325 326 327 329 330 330 331 332 331 330 328 327 327 327 327 328 330 332 333 334 333 332 333 333 333 333 332 331 333 335 335 335 334 333 333 333 333 332 332 333 333 333 332 332 332
305 305 304 304 304 304 304 304 305 305 305 305 305 305 305 305 302 301 304 306 306 306 309 312 315 315 316 317 316 316 314 311 313 314 311 310 312 316 322 324 323 324 325 325 326 327 328 328 329 330 331 330 329 328 328 328 329 331 333 333 332 332 332 332 332 332 329 327 328 331 331 332 332 329 328 331 332 332 332 333 333 333 333 333 332
305 305 305 304 304 303 304 303 303 304 303 304 305 305 305 304 302 301 303 304 304 305 308 312 315 316 317 317 316 315 314 314 315 313 309 307 307 310 314 317 318 320 321 322 324 326 325 325 326 328 330 331 331 329 329 329 329 331 332 332 332 331 331 331 331 330 328 326 328 329 329 331 333 332 331 331 331 330 330 332 333 333 333 332 332
305 305 305 305 304 303 303 303 303 304 304 305 306 306 305 304 302 301 301 302 303 305 308 310 314 316 317 317 316 315 315 316 314 309 307 308 307 306 308 313 316 318 317 319 323 323 323 324 325 325 327 330 331 330 330 331 331 332 332 332 331 332 332 332 331 329 328 329 330 330 330 333 334 334 334 333 331 330 328 327 328 330 332 332 331
305 305 305 304 304 304 303 304 304 304 304 305 306 306 306 305 302 300 299 301 303 306 307 309 313 316 317 316 314 314 315 313 310 308 309 310 307 304 307 313 317 318 318 318 318 318 319 321 322 323 325 328 330 331 331 331 332 332 332 331 331 331 331 330 330 329 329 330 330 329 329 331 332 332 333 333 331 330 329 327 325 326 330 331 330
305 305 304 304 304 304 304 304 303 304 304 305 306 307 306 305 302 300 300 301 303 306 308 309 311 314 315 314 313 314 314 311 310 310 311 311 310 305 305 310 315 316 315 313 312 315 318 318 317 319 322 324 325 327 328 329 329 330 330 330 331 331 331 331 331 331 330 329 330 330 329 329 330 331 332 332 329 327 326 327 327 327 330 330 329
304 304 305 304 304 304 304 304 304 304 304 305 306 307 306 305 303 301 301 302 304 306 308 309 310 312 314 314 314 314 312 310 309 310 309 310 311 309 306 307 310 309 307 306 308 313 317 316 316 318 320 318 316 317 318 319 321 323 324 325 328 330 331 332 332 332 331 330 330 330 329 329 329 331 332 330 327 324 324 325 327 328 330 329 328
304 304 305 304 304 304 304 303 304 304 304 305 306 306 305 304 303 302 301 302 304 306 307 309 311 312 313 314 314 313 312 310 308 307 307 308 309 309 307 306 306 305 304 304 307 312 314 314 314 317 318 318 315 314 313 311 310 312 314 317 322 325 328 329 330 332 332 332 331 330 330 330 330 331 331 329 326 326 325 326 328 330 330 329 327
305 305 305 304 304 304 304 303 304 304 304 304 305 305 305 304 303 302 301 302 304 305 307 309 311 311 312 313 313 312 312 310 308 308 309 310 310 310 309 308 307 307 306 305 306 310 313 313 314 315 317 318 317 316 316 313 309 307 306 309 313 317 320 321 324 328 330 331 331 331 331 331 331 330 330 329 328 329 328 327 329 331 331 330 329
305 305 305 305 305 304 304 304 304 304 304 304 305 305 305 304 303 302 302 302 304 305 305 307 310 311 312 313 313 312 312 311 309 310 312 313 313 312 312 312 311 309 308 306 306 309 312 312 312 314 316 317 317 317 318 317 314 312 308 305 305 309 311 314 316 320 324 326 329 330 331 332 332 331 331 331 331 331 330 327 327 329 331 331 331
305 305 305 305 304 304 303 304 304 304 304 304 304 304 304 304 303 302 302 302 304 304 304 305 308 310 312 313 313 313 313 313 312 312 313 312 313 312 312 312 312 311 310 309 308 309 311 311 311 312 312 314 316 317 317 316 316 316 314 309 305 305 305 308 310 313 316 319 322 324 326 328 330 331 332 332 332 331 330 330 329 329 330 332 332
305 305 304 304 304 304 304 304 304 304 304 304 304 304 304 304 303 302 302 302 303 303 304 304 306 308 311 312 313 313 313 313 312 313 313 312 313 313 312 312 313 312 312 312 310 310 311 310 310 311 311 312 313 315 317 319 319 320 320 317 314 312 308 307 307 308 309 312 313 315 317 319 322 326 328 330 331 331 331 331 331 331 331 332 332
304 304 304 304 304 304 303 303 304 304 304 303 304 304 304 304 303 301 301 302 302 302 303 304 305 307 309 311 312 312 312 312 311 312 313 312 312 313 313 313 313 312 312 312 312 312 311 311 311 311 311 313 313 313 318 320 320 321 321 319 317 315 312 309 308 306 306 307 307 308 309 310 312 315 318 321 324 327 329 330 331 331 331 331 332
304 304 304 304 304 304 304 304 304 304 304 303 304 304 304 304 303 301 301 302 302 302 303 303 304 305 307 307 309 311 311 311 310 311 312 311 311 311 312 312 312 312 311 311 312 312 311 311 311 311 312 313 314 315 318 319 318 319 319 317 315 313 311 310 309 307 306 305 303 304 304 305 306 307 309 312 315 316 319 321 323 325 328 329 331
304 304 303 303 303 304 304 303 304 304 304 304 304 304 304 304 303 301 301 303 302 302 303 303 303 304 305 305 306 308 309 309 309 309 310 310 309 309 309 310 311 311 311 311 311 310 309 308 307 308 310 312 314 315 317 317 316 316 316 315 314 313 312 312 310 307 305 303 302 303 303 304 304 305 309 315 318 318 317 315 314 316 318 320 322
304 303 303 303 303 303 303 303 303 304 304 304 304 304 304 304 303 302 301 302 303 303 303 303 303 303 304 305 305 305 306 306 306 307 308 308 308 308 308 308 309 309 309 309 308 308 307 306 304 304 306 309 312 313 315 316 316 316 316 316 316 315 315 314 311 306 302 301 301 301 302 302 304 307 312 317 320 322 322 318 314 312 310 310 312
Wind_Speed
10 7 10 11 7 5 8 8 11 17 19 20 21 19 17 18 21 22 21 21 20 21 24 25 24 22 21 21 20 20 20 21 22 21 22 23 23 21 21 21 20 20 21 21 21 24 24 22 24 25 25 25 26 25 23 23 23 22 22 23 25 26 24 19 15 17 18 17 17 17 16 15 14 13 13 12 11 11 12 11 11 11 10 10 11
10 11 14 14 12 9 8 7 9 15 19 21 21 19 18 16 18 21 22 21 20 20 21 24 25 24 24 23 22 21 21 21 21 21 22 23 23 22 20 20 20 21 21 21 22 23 21 21 23 26 26 26 27 27 26 24 23 22 23 24 24 25 25 22 18 18 19 18 17 17 16 15 14 13 14 12 12 12 11 12 13 11 10 11 10
13 14 17 17 16 14 10 8 8 13 18 21 21 19 19 17 16 19 22 22 20 20 20 21 23 24 24 23 22 22 22 21 20 19 20 21 22 21 21 20 20 21 20 21 23 23 21 19 21 24 25 27 28 28 28 26 24 23 23 23 23 24 24 23 21 20 20 19 17 17 15 14 14 14 15 14 14 14 12 12 13 12 12 12 11
15 15 17 19 18 16 12 9 8 12 17 21 21 19 19 18 16 17 20 22 22 21 20 19 19 22 22 21 20 19 19 19 19 19 20 21 21 22 22 21 20 21 21 22 24 24 22 20 21 23 25 27 28 28 28 27 25 24 24 23 23 24 24 23 23 22 21 19 17 16 13 11 11 11 12 13 13 12 12 13 12 12 13 13 12
18 19 19 20 18 15 12 9 10 13 17 21 21 20 19 18 17 17 18 20 22 21 21 20 20 21 22 21 19 19 19 19 20 22 23 22 21 22 22 22 21 21 22 22 23 24 23 22 23 25 26 27 27 26 27 27 26 26 26 24 23 24 23 23 23 22 20 18 16 14 11 10 10 8 8 10 11 11 11 11 11 11 11 12 11
17 19 18 17 16 13 10 9 11 13 15 19 21 21 20 18 17 17 18 19 21 22 22 23 23 23 25 25 24 24 24 24 24 24 24 23 22 21 22 23 23 23 23 23 23 24 23 23 23 25 26 26 26 25 26 26 27 27 27 24 22 23 22 22 22 22 20 19 17 16 13 10 10 9 8 9 11 11 11 10 10 9 9 11 11
13 14 14 15 14 12 11 10 10 12 14 15 19 22 21 19 17 18 19 19 21 23 23 24 24 24 26 28 27 27 27 26 24 24 24 22 21 21 21 23 23 23 23 23 24 24 24 23 24 25 26 26 25 25 25 25 26 27 27 24 21 21 22 21 21 21 21 19 18 20 17 13 11 10 9 9 9 9 9 9 10 10 10 11 11
9 12 14 16 16 16 16 14 11 12 14 14 17 22 22 20 20 20 21 19 20 23 25 26 26 25 26 27 27 26 26 25 23 23 23 21 21 21 22 23 23 24 24 24 24 24 24 24 23 24 26 26 25 24 24 24 24 26 26 24 22 21 22 23 22 21 22 20 19 21 20 16 13 11 10 10 8 6 6 6 9 11 12 12 10
11 13 15 17 17 17 18 17 17 16 16 17 17 20 22 22 22 22 22 21 20 22 26 27 27 27 26 26 27 26 25 23 21 20 20 20 21 21 21 23 24 26 26 25 24 24 24 25 23 23 25 27 26 25 25 24 24 26 26 25 23 21 23 24 24 22 21 20 19 19 19 17 15 13 13 13 11 8 6 6 7 10 12 12 11
15 14 14 16 17 18 18 17 18 17 17 18 17 19 22 21 22 23 24 24 23 23 26 28 28 28 26 27 28 27 24 23 22 20 19 21 22 22 22 23 24 26 26 26 24 24 25 25 24 23 24 26 27 26 26 25 25 26 26 25 24 22 23 23 24 24 22 20 19 19 19 18 17 16 15 14 13 11 9 8 7 8 11 13 11
13 13 15 17 18 19 19 18 19 18 17 18 17 19 22 22 22 24 25 26 27 26 26 27 28 28 28 27 28 28 25 25 25 24 22 23 24 24 24 23 23 23 25 26 24 24 25 25 25 24 23 25 26 26 25 25 26 25 25 26 25 24 24 23 24 26 23 21 21 21 20 19 18 16 15 15 14 12 11 9 8 7 11 12 10
12 12 15 17 19 23 24 22 20 19 18 19 19 20 22 23 23 25 27 29 30 29 28 27 28 28 28 27 27 28 27 27 27 27 26 25 25 25 24 23 22 21 22 24 24 24 25 25 25 26 25 25 26 25 25 26 26 25 25 26 26 25 25 24 25 25 24 23 23 22 21 20 18 16 15 15 14 13 12 10 8 7 9 11 10
14 14 14 15 17 22 25 24 24 23 21 21 21 22 24 24 25 27 28 30 30 30 29 28 29 29 27 27 27 27 28 28 28 27 28 27 25 25 25 24 24 23 22 23 24 24 24 25 25 27 27 26 26 26 25 25 26 27 26 26 26 26 25 24 24 24 24 23 23 23 22 20 20 17 16 16 15 14 13 11 9 7 8 9 10
17 15 15 15 17 19 21 23 24 25 25 24 24 24 25 27 29 29 30 30 29 28 27 27 29 30 28 27 26 27 28 29 28 27 27 27 26 25 24 24 24 24 23 23 23 23 24 25 25 25 26 26 25 25 25 25 26 27 27 26 26 27 24 23 23 23 23 23 23 24 22 21 20 19 18 17 17 16 14 12 11 9 8 8 11
19 19 18 18 18 19 21 23 23 25 26 26 27 28 28 30 31 32 32 31 30 30 27 27 29 29 29 28 27 27 28 29 28 27 26 26 26 25 23 23 24 23 22 22 22 23 24 26 26 25 25 26 25 24 25 25 26 27 27 26 26 26 24 23 23 24 23 23 22 23 22 21 21 20 19 18 17 16 15 13 12 11 9 9 11
24 26 27 27 26 25 25 24 23 25 27 26 28 30 31 32 32 32 33 29 27 29 30 31 31 30 29 28 28 28 27 28 28 28 28 26 25 25 24 23 22 21 20 20 21 22 24 26 26 25 25 26 25 24 25 26 27 28 27 26 25 24 23 22 23 23 22 22 22 21 21 21 20 19 18 17 16 15 14 14 14 13 12 11 12
28 29 30 31 32 32 31 28 27 27 28 28 28 30 32 32 31 31 32 28 25 25 27 30 31 33 33 29 27 29 29 28 28 28 28 27 25 24 24 23 22 21 20 19 18 19 22 24 26 25 24 25 25 24 25 27 27 28 28 27 25 23 22 22 22 21 20 21 21 21 20 20 18 17 16 16 15 14 15 15 15 16 14 14 15
29 30 31 32 33 33 33 33 32 31 31 31 30 30 32 32 32 31 31 30 29 28 27 27 26 29 33 31 28 30 31 29 27 28 27 26 26 25 24 23 22 22 22 21 19 17 18 21 24 25 24 24 25 25 26 26 26 28 28 26 24 23 23 23 22 21 21 21 20 19 19 18 16 15 16 16 15 14 14 14 15 15 14 15 16
29 30 30 32 32 32 34 35 35 34 34 32 31 32 33 33 32 31 32 34 33 31 30 29 26 25 28 31 31 30 32 31 27 27 26 25 25 25 24 24 23 22 23 22 20 19 17 18 22 25 24 23 23 24 26 27 26 27 27 26 25 24 24 22 21 22 22 20 19 18 17 15 15 15 16 16 15 15 14 13 14 15 15 14 15
26 27 28 29 30 30 32 33 34 35 35 34 34 33 34 35 32 29 33 37 36 33 31 31 29 26 25 28 32 33 33 32 29 26 26 26 25 23 22 22 22 22 23 22 20 20 19 19 21 24 24 23 23 24 26 27 28 27 27 26 26 25 23 21 21 22 21 20 19 18 17 15 15 16 16 16 15 14 14 14 15 15 13 14 15
24 25 25 27 28 29 30 32 33 34 35 37 38 36 35 37 36 32 32 35 37 36 33 32 30 28 25 25 30 34 33 31 30 28 26 25 24 21 20 21 22 22 23 22 21 20 19 19 20 23 25 24 23 24 25 27 28 27 27 27 27 25 23 21 21 21 21 20 19 18 17 16 15 16 16 15 14 13 13 14 16 15 13 15 16
23 24 25 25 26 29 32 33 33 35 35 37 38 38 35 35 36 36 35 34 37 38 36 34 32 29 27 25 27 30 31 30 29 28 27 26 25 22 19 21 24 23 23 23 21 20 19 18 18 20 23 23 22 23 24 26 27 26 26 28 27 25 24 23 22 22 20 20 19 18 17 16 16 16 16 15 14 13 13 15 17 16 14 14 15
21 22 24 25 26 29 31 31 33 36 36 35 35 35 36 34 33 34 35 36 38 38 37 38 34 28 25 25 26 26 27 29 28 28 27 26 27 24 21 22 24 24 23 23 23 21 20 19 18 20 21 22 22 22 23 25 26 25 26 28 27 25 25 25 24 23 21 20 19 18 17 16 17 16 15 14 13 13 14 14 15 15 13 13 14
23 23 22 23 26 26 26 27 31 34 35 36 34 34 37 36 33 32 32 34 36 35 34 36 33 26 23 22 21 22 23 24 26 27 27 27 27 26 24 24 24 23 23 23 24 23 21 20 21 21 22 21 21 22 24 26 26 26 26 27 27 26 25 25 24 23 22 21 20 18 17 18 17 16 15 14 13 14 14 14 15 15 13 12 13
24 26 25 24 24 23 23 26 29 31 32 35 35 34 37 39 37 35 33 32 33 34 31 27 24 22 20 17 15 17 19 20 22 24 26 27 28 27 26 25 23 23 23 22 23 24 23 21 21 22 23 23 22 22 24 25 26 25 25 26 26 25 25 24 23 23 23 22 21 19 18 18 18 16 16 15 13 14 14 14 15 15 13 11 12
25 26 26 26 23 22 24 25 27 29 30 32 34 33 34 37 40 39 37 34 33 34 32 25 22 26 26 19 15 16 17 19 21 24 26 28 29 29 27 26 24 24 23 21 22 24 23 21 21 21 22 22 23 23 23 23 24 24 24 26 26 24 24 23 22 23 23 21 20 20 19 18 17 16 16 15 14 13 13 13 14 14 13 11 12
26 25 26 27 25 22 22 23 24 28 30 31 32 31 29 32 38 40 38 35 34 34 34 29 24 28 29 22 18 18 20 22 22 24 27 28 29 29 28 26 25 24 23 22 22 24 24 22 21 22 22 23 22 22 22 23 23 24 25 26 26 24 22 23 23 23 21 20 20 20 19 17 17 16 15 15 15 13 13 12 12 13 13 12 13
25 25 25 26 25 22 22 24 25 27 30 30 30 30 29 29 35 40 37 33 32 35 36 32 27 27 27 22 15 13 16 21 22 24 25 26 26 27 27 27 26 23 23 24 24 24 23 21 21 23 23 23 22 21 21 23 23 24 25 25 24 23 23 23 24 22 20 20 20 19 18 16 16 15 14 14 13 13 13 12 12 13 13 12 12
26 26 25 25 24 22 22 25 26 25 27 30 30 30 30 29 32 38 39 34 31 33 36 35 32 30 29 26 21 14 12 15 19 23 25 25 24 25 27 27 25 22 21 21 21 22 20 19 20 22 22 21 22 22 21 22 22 23 24 23 23 23 23 23 23 22 21 21 20 19 17 16 15 14 12 11 11 11 12 11 12 14 13 12 12
28 28 27 26 23 22 22 23 24 24 26 29 30 29 30 30 30 35 39 38 34 31 34 36 33 30 30 30 26 17 10 9 13 18 24 25 22 23 24 24 22 20 18 17 16 18 21 18 16 18 20 20 22 24 23 21 21 21 22 22 23 23 22 22 21 21 20 20 19 18 17 16 15 13 12 12 11 10 9 9 11 13 12 11 13
29 29 29 27 24 23 23 23 23 24 25 27 28 29 29 30 31 32 35 40 39 31 30 33 32 29 29 29 27 19 11 6 5 8 14 19 20 20 21 23 23 18 14 14 15 18 21 19 16 16 17 15 16 20 23 24 22 20 20 21 23 22 21 20 21 20 19 19 18 17 17 16 15 13 13 13 12 11 10 9 9 10 10 10 12
31 31 30 28 26 26 25 24 24 25 25 25 27 28 29 29 29 31 34 40 42 34 28 29 29 26 25 25 27 23 13 3 6 8 8 9 13 16 18 21 21 15 11 12 15 17 19 17 14 14 16 16 14 12 15 20 23 22 21 20 21 20 20 20 21 20 19 18 18 18 18 17 15 13 13 13 12 12 11 11 10 9 9 10 10
34 31 28 28 28 27 26 25 26 25 25 25 26 27 27 27 28 31 33 38 42 35 27 26 26 25 23 21 20 20 17 8 2 8 9 5 2 8 12 14 13 10 11 12 12 14 16 13 11 11 13 15 14 11 9 14 18 20 21 20 20 20 20 20 20 21 20 18 17 19 19 17 15 14 14 13 12 12 12 11 11 11 11 11 12
32 27 26 26 27 28 27 27 27 26 26 25 25 25 26 27 29 32 33 35 39 36 28 26 26 25 25 21 13 11 13 11 6 2 7 9 8 6 5 6 5 4 8 12 12 12 12 12 12 11 9 10 12 11 12 12 12 15 18 18 18 17 16 17 18 20 20 18 18 19 18 17 16 16 14 13 12 12 11 11 11 11 12 13 13
27 24 25 26 27 29 31 30 29 27 26 25 24 25 26 27 31 35 34 33 35 35 30 28 25 23 25 23 17 13 10 8 8 5 1 7 11 11 11 9 8 7 5 5 9 12 12 11 12 11 10 11 11 10 12 13 12 14 17 17 17 16 13 13 15 17 16 16 17 18 18 18 16 16 15 13 11 10 10 10 11 11 12 13 13
26 24 25 26 28 30 32 31 27 24 25 25 26 27 26 27 34 38 34 30 33 34 32 28 23 22 24 22 19 21 19 13 10 10 8 3 7 10 11 12 12 11 11 9 5 6 8 8 10 12 13 13 12 10 13 14 13 14 16 16 17 17 13 10 10 11 11 11 11 11 13 13 10 9 10 9 9 10 10 10 10 10 11 12 12
31 29 29 29 29 31 33 32 28 27 29 30 29 26 26 30 37 39 32 29 33 34 30 26 22 22 24 21 18 21 20 13 10 9 9 8 7 8 8 11 12 12 13 12 9 7 4 4 6 11 14 15 14 14 15 16 15 15 14 13 14 16 14 12 11 10 10 10 10 8 6 5 4 5 6 6 7 9 9 9 10 10 10 12 12
34 33 33 33 31 33 35 35 33 33 33 32 29 24 26 32 38 38 32 32 36 35 29 24 21 20 23 23 19 18 15 14 13 12 11 11 11 10 9 10 13 13 13 10 8 8 7 5 4 6 10 14 15 15 15 15 15 14 13 11 11 13 13 13 13 12 11 11 10 9 8 7 7 7 7 6 7 8 7 8 9 8 8 10 12
34 33 34 36 34 33 34 34 34 33 29 27 25 22 25 33 38 37 35 36 37 34 28 23 18 18 21 22 19 17 15 16 17 15 13 12 12 11 10 11 14 12 11 11 11 9 7 6 5 6 5 7 11 13 13 13 12 11 11 10 11 12 12 13 12 13 13 13 12 12 12 10 9 9 8 8 8 8 8 9 10 9 10 12 12
36 34 35 37 35 33 32 30 30 29 27 26 24 22 26 33 36 37 37 38 35 31 26 21 15 15 20 20 17 15 15 17 16 14 12 11 11 11 11 12 13 11 12 13 12 10 8 7 6 6 6 5 6 7 8 8 8 8 9 10 11 12 12 12 13 15 15 14 14 14 13 13 13 12 12 11 11 10 10 11 12 12 13 14 12
34 33 34 36 35 32 31 29 28 28 27 26 23 22 26 32 35 35 36 37 34 28 22 16 10 12 19 20 18 17 20 19 15 12 10 10 10 10 11 12 12 10 9 10 10 10 8 6 6 7 6 5 5 4 3 2 2 2 3 5 7 8 10 13 15 15 14 14 15 15 15 15 16 15 14 13 12 13 13 13 12 12 12 12 12
37 36 34 33 31 30 29 27 27 27 26 24 22 22 26 31 32 33 35 35 32 25 18 12 7 10 18 21 19 20 22 18 13 10 9 9 10 12 12 12 11 8 7 8 10 10 8 4 6 7 4 3 4 4 3 3 2 1 1 1 2 2 6 11 14 15 15 15 16 17 17 16 16 16 16 14 14 15 16 14 12 12 12 13 13
44 39 34 31 30 30 30 29 28 26 24 22 21 23 27 29 30 31 33 31 28 22 16 10 4 10 19 20 18 18 17 14 10 8 7 8 9 11 12 12 10 8 7 8 9 10 8 6 6 6 3 3 5 6 5 5 4 2 2 2 2 1 2 4 6 10 14 15 15 16 17 16 16 16 17 16 15 15 16 15 14 14 15 15 16
38 36 34 32 29 28 28 28 27 25 22 21 21 25 28 28 27 29 29 26 24 19 12 8 1 11 17 16 15 17 16 13 11 10 10 11 11 10 10 10 8 8 7 6 7 8 7 4 4 5 3 2 5 5 7 7 6 4 2 2 2 2 3 4 3 5 8 11 13 16 16 16 16 17 17 17 15 13 13 14 15 16 18 18 20
32 31 30 29 27 25 25 25 24 22 20 20 20 24 27 26 25 27 26 22 19 15 12 11 5 8 16 15 14 16 14 12 13 12 11 11 11 10 10 9 7 8 8 7 7 9 9 5 3 3 3 1 3 4 5 6 7 7 4 2 0 2 4 4 4 3 3 5 8 12 14 15 16 16 17 17 15 13 13 13 14 17 19 20 20
29 27 25 25 25 24 23 23 22 21 20 19 19 21 25 25 23 23 22 18 14 11 12 14 8 6 15 15 14 14 12 12 12 11 10 10 9 8 8 8 7 7 7 7 8 9 8 5 4 4 4 2 1 3 4 5 6 6 5 3 2 2 3 4 4 4 4 5 6 7 9 11 13 15 16 16 16 15 14 14 15 18 20 21 20
28 25 24 24 23 22 22 23 22 20 18 17 17 19 22 23 21 20 19 15 10 9 12 13 10 3 11 12 13 12 9 9 10 9 8 8 7 6 6 6 6 6 6 6 6 7 6 5 5 5 4 3 2 2 2 1 1 4 7 7 4 3 2 3 4 5 6 7 7 7 6 7 8 11 13 14 16 17 17 17 18 19 20 21 21
25 24 23 22 21 21 21 21 20 18 16 15 16 18 21 21 19 18 16 12 8 9 11 13 14 6 5 9 11 11 10 9 8 8 8 8 7 6 4 4 4 5 6 6 5 5 5 5 6 6 4 4 2 4 6 6 6 6 8 6 4 1 1 2 3 5 6 7 8 8 8 8 8 9 9 10 13 15 17 18 19 20 22 22 22
21 22 21 20 19 19 19 18 17 17 17 17 15 16 19 20 17 16 14 11 9 9 10 13 19 15 3 5 5 9 12 10 6 8 10 9 7 6 5 3 3 4 4 5 6 5 6 7 7 7 6 5 4 5 9 11 11 10 9 7 4 4 5 5 6 8 10 11 11 11 10 9 9 9 10 10 10 11 13 15 16 17 19 21 22
18 19 19 18 18 18 17 17 17 17 17 16 15 15 18 19 16 14 12 11 12 10 12 13 17 16 9 7 5 3 7 6 4 5 7 6 5 4 3 2 2 5 5 6 7 7 6 6 5 6 6 3 3 5 7 9 11 12 11 10 8 7 9 11 14 16 17 16 15 13 12 11 10 9 9 9 10 10 12 13 14 15 16 17 19
18 18 18 17 17 17 16 15 16 16 15 15 15 14 17 18 15 12 10 10 14 15 15 13 11 11 9 9 10 7 5 4 4 4 4 2 3 5 5 3 2 3 5 6 7 7 7 7 6 6 9 10 8 7 8 9 9 10 11 12 12 13 15 17 20 20 19 17 16 15 14 13 11 9 9 9 10 11 12 14 15 16 17 18 18
Wind_Direction
78 47 9 357 340 289 257 258 267 259 246 237 235 228 219 222 223 220 216 203 192 183 179 184 191 196 201 207 212 215 219 222 224 225 226 227 225 221 219 217 216 216 220 221 222 224 223 220 218 217 219 217 217 220 218 217 214 213 218 219 222 222 220 222 212 212 225 224 224 227 225 229 235 238 239 240 237 236 246 257 264 260 251 253 250
43 14 10 10 2 336 290 285 288 269 252 240 237 232 223 221 220 220 217 209 201 194 188 187 190 196 201 204 209 212 218 222 223 223 225 227 225 224 222 217 216 218 219 219 221 226 224 222 220 218 218 219 217 218 218 219 217 214 218 221 223 224 224 223 212 210 221 221 223 227 229 234 239 240 239 239 238 236 243 256 260 257 257 261 249
24 12 19 16 3 349 320 304 296 275 257 244 240 236 229 224 222 219 217 213 206 202 202 195 193 198 202 206 208 210 216 221 225 227 227 227 225 224 224 221 218 219 220 220 221 225 224 221 222 221 220 219 217 217 219 221 219 215 217 221 222 221 222 220 216 216 219 219 223 227 229 233 237 239 236 235 237 233 232 243 252 257 253 251 247
38 29 26 19 6 353 333 313 295 282 268 253 244 236 230 226 225 220 217 216 212 209 210 205 197 198 202 209 212 210 216 221 222 225 226 226 224 223 225 227 221 216 219 221 222 224 223 217 216 218 217 217 217 217 218 221 221 218 218 222 223 224 224 221 222 227 222 215 219 223 225 230 230 235 236 236 236 231 231 235 240 250 252 248 247
44 34 24 20 15 2 346 323 301 291 277 265 251 236 231 232 227 219 218 219 216 215 214 209 201 196 199 207 212 210 213 218 216 216 220 221 222 224 225 227 224 220 220 221 222 224 224 220 216 215 215 216 217 218 219 222 223 220 219 224 227 227 230 229 230 235 229 219 221 217 213 223 223 221 224 223 223 222 227 233 236 243 253 253 247
42 35 27 23 20 11 355 329 311 301 285 274 262 244 233 235 231 220 219 220 219 219 216 214 208 199 197 202 208 207 208 215 216 216 219 220 223 226 225 226 225 223 223 222 222 223 224 226 223 219 217 217 219 220 220 222 223 220 219 224 229 229 232 236 237 237 230 223 225 220 212 216 215 213 209 209 218 223 223 230 241 242 251 260 259
45 39 34 23 19 12 354 339 326 312 299 288 275 259 240 232 231 224 222 222 220 221 220 219 216 207 199 201 208 208 208 215 219 219 223 226 228 229 226 225 224 223 224 222 221 224 224 225 226 223 221 220 220 221 221 221 221 220 219 223 230 231 232 239 243 239 229 222 223 224 222 222 221 221 217 210 213 222 224 231 245 249 253 260 263
49 45 38 24 19 15 3 354 344 326 312 298 281 271 255 238 233 228 225 227 226 225 223 223 221 214 205 203 208 211 213 217 221 224 227 229 229 228 226 225 223 222 224 223 223 225 225 224 225 224 225 224 224 224 223 223 221 219 220 223 227 230 231 236 238 235 229 223 224 226 227 232 235 235 231 221 215 225 243 249 250 252 254 255 255
57 57 44 31 22 13 9 358 346 340 328 312 294 282 267 247 238 234 229 230 233 230 228 228 226 219 210 205 206 211 214 216 222 227 225 223 223 223 225 225 224 224 226 227 225 225 225 224 225 224 225 226 227 228 228 225 222 221 222 223 225 227 229 233 235 236 234 225 225 230 233 238 241 243 240 234 230 237 254 264 259 255 253 251 251
55 60 49 34 19 7 6 356 346 344 332 319 308 294 280 262 246 240 234 230 233 236 234 234 230 221 214 209 207 209 212 213 219 223 218 216 218 220 223 225 225 225 225 226 226 225 225 225 225 223 223 225 226 228 228 225 223 223 224 226 226 226 228 234 237 239 240 233 231 236 237 237 236 238 240 239 239 238 237 243 254 262 257 250 246
46 52 46 33 22 15 9 359 350 346 336 324 314 301 292 280 260 249 241 233 232 237 239 237 233 225 219 214 209 208 210 212 214 217 217 215 216 218 222 226 228 226 223 224 225 224 224 226 226 224 222 222 224 227 228 227 226 225 224 226 228 229 231 236 238 239 241 242 242 241 239 236 234 235 238 240 239 235 234 239 248 258 257 252 246
34 42 41 29 24 17 10 5 356 349 343 332 322 310 300 290 273 260 252 243 236 235 238 238 235 230 224 219 214 210 209 213 214 214 217 218 216 216 219 223 226 226 223 223 224 222 223 224 223 223 224 223 226 229 230 229 227 224 223 225 228 232 233 235 236 237 238 241 242 242 241 238 236 236 237 238 235 231 234 242 248 250 248 249 245
31 38 38 25 18 10 5 3 359 353 347 337 329 319 308 298 287 274 264 257 248 240 238 241 240 237 232 224 221 216 212 215 216 215 218 220 217 215 216 218 221 224 223 222 222 220 220 222 222 222 223 225 229 230 230 229 226 224 224 225 228 230 232 233 235 237 238 238 238 240 242 240 238 239 236 236 235 231 232 237 244 245 245 250 238
27 29 33 24 13 6 360 357 356 354 347 340 336 330 320 309 300 292 284 279 275 264 254 252 250 245 241 234 227 223 218 216 217 217 220 221 219 218 220 220 222 227 228 225 224 221 220 223 225 225 224 227 230 229 228 227 226 226 227 228 228 229 230 233 236 237 237 236 236 240 243 242 242 242 240 240 240 237 232 232 236 232 233 244 228
18 17 22 19 10 3 357 352 350 350 347 342 338 336 332 322 315 312 307 302 296 287 279 274 265 253 249 244 236 232 227 221 220 220 221 223 223 223 225 226 225 229 233 230 227 223 220 223 226 226 225 227 228 226 225 224 224 224 226 228 229 228 231 237 238 237 236 236 237 240 245 246 244 242 243 244 243 238 231 229 233 226 213 215 214
16 15 15 14 9 4 359 352 347 346 346 344 341 338 335 329 325 325 321 315 305 293 291 292 279 262 257 253 246 243 236 228 226 223 221 221 223 224 224 227 228 228 233 234 232 228 222 222 225 227 226 225 226 225 222 221 222 223 225 228 227 227 233 238 237 234 234 237 240 243 246 247 244 241 244 246 242 234 229 225 228 229 214 199 200
15 13 10 9 7 4 360 356 350 346 345 344 341 339 336 332 330 329 325 320 313 304 300 298 285 267 262 261 259 254 246 237 231 228 225 221 221 225 225 226 226 225 229 232 233 233 227 222 224 227 225 223 225 225 222 222 223 223 225 227 227 229 235 235 231 230 232 239 244 246 246 244 241 242 242 242 239 232 227 222 225 232 223 204 196
10 8 6 5 4 1 358 357 354 352 351 349 344 342 340 337 334 333 330 324 317 311 306 300 290 273 263 262 266 262 253 247 238 230 230 225 220 223 225 225 224 222 225 229 229 231 229 223 223 226 224 222 223 223 222 223 223 221 222 224 225 228 231 230 228 229 231 236 242 244 243 240 237 239 240 239 238 232 226 222 224 224 218 209 199
6 3 1 360 359 358 356 355 355 354 353 352 350 349 346 343 339 337 337 335 328 319 310 302 295 283 266 259 263 262 255 255 250 237 233 230 223 223 225 226 225 222 223 226 226 226 224 220 221 225 224 222 223 221 219 220 220 217 215 219 221 222 225 225 227 230 230 231 236 239 238 235 230 233 239 241 239 233 228 225 221 214 206 206 203
2 358 357 354 353 354 354 355 356 356 354 353 351 350 350 350 347 340 338 341 341 335 322 310 299 289 277 264 258 256 252 253 256 249 242 238 229 225 229 230 226 223 222 225 225 222 222 222 221 222 223 223 223 222 219 218 218 216 214 217 220 221 224 225 226 230 229 227 231 234 234 231 228 230 237 240 236 231 228 221 215 213 204 198 201
356 354 352 351 348 345 344 346 347 350 351 351 349 349 350 352 351 345 337 337 341 340 332 321 309 296 288 274 258 252 248 248 252 252 252 250 238 229 233 235 232 226 222 225 226 223 222 222 219 219 222 223 223 223 222 218 218 218 216 215 217 220 225 226 226 228 226 225 229 231 230 227 225 229 236 237 231 226 221 212 210 215 211 199 196
350 347 344 345 345 341 337 336 335 336 337 340 343 347 347 349 351 349 342 335 333 333 331 326 317 302 291 281 266 257 249 245 247 247 248 251 244 233 231 235 235 230 223 222 225 223 218 215 213 213 217 221 220 221 222 219 219 219 216 214 216 221 224 223 222 222 221 222 225 225 224 222 223 229 235 235 228 221 214 209 210 212 213 204 191
341 339 337 336 335 333 333 334 333 332 332 333 336 339 339 340 346 347 344 338 330 327 327 325 318 304 290 280 270 261 248 241 243 244 243 245 243 239 235 233 232 231 226 221 221 223 216 209 208 206 210 217 218 217 217 218 219 219 217 216 217 220 221 220 219 217 216 218 222 220 216 218 224 227 232 234 227 219 212 207 206 206 209 204 186
331 329 330 332 329 325 326 332 334 334 332 330 331 332 330 332 339 341 342 342 335 327 325 324 318 304 290 282 269 252 239 236 237 238 239 241 242 243 241 237 231 230 231 224 220 225 221 209 205 205 207 212 213 213 214 215 216 218 217 217 217 218 218 218 218 216 215 215 217 217 213 217 226 227 229 232 224 216 211 204 201 201 203 196 178
328 326 328 330 330 328 325 326 329 332 331 327 327 329 325 324 328 331 333 337 336 330 323 323 327 317 299 288 273 253 242 237 234 235 240 242 242 241 241 239 233 231 234 231 224 224 222 211 205 207 209 209 209 211 212 214 214 214 214 214 215 216 216 216 216 216 217 215 214 218 216 218 225 225 224 227 222 214 206 200 199 197 196 192 184
325 325 327 327 327 329 326 323 323 327 329 327 326 328 326 322 320 323 326 325 326 329 325 319 326 326 313 295 272 260 253 245 241 242 244 243 241 239 238 237 234 230 232 236 232 225 220 213 207 208 211 210 211 211 212 215 215 211 212 213 215 215 215 216 215 213 216 216 216 219 216 215 222 224 222 225 224 214 201 197 197 195 195 197 196
320 322 325 325 326 327 328 327 323 321 323 324 324 326 329 326 321 322 327 322 314 318 323 319 316 317 313 299 273 258 254 250 247 247 248 245 240 238 237 234 232 228 226 231 236 229 220 215 209 207 209 210 212 215 215 216 216 211 211 214 215 215 214 214 212 211 213 214 214 215 211 212 221 225 224 226 224 213 200 194 192 195 198 198 195
315 318 321 322 323 325 328 327 324 322 321 322 322 323 326 327 322 323 330 329 315 309 314 318 314 307 306 303 286 264 255 252 247 244 245 245 240 238 239 235 230 228 225 227 234 234 227 221 213 210 211 210 211 215 213 213 214 213 213 214 213 212 212 210 209 211 213 212 210 212 211 212 220 226 226 225 220 209 201 196 190 194 196 190 190
311 314 316 316 317 321 324 323 320 322 323 321 321 321 323 325 322 323 329 332 323 309 306 313 312 301 295 295 290 280 265 257 250 241 237 239 239 238 240 239 233 229 226 224 229 238 239 232 220 215 211 209 212 214 210 208 209 210 213 213 209 208 208 206 206 209 210 210 209 211 212 212 217 223 222 217 211 202 199 199 194 197 200 193 189
308 310 311 311 312 315 319 318 317 318 320 320 320 319 320 322 322 322 325 327 325 312 301 306 312 302 289 284 283 286 290 276 260 247 239 237 239 238 238 240 239 231 223 218 224 240 245 240 233 225 214 210 215 217 212 210 209 210 213 210 207 209 207 204 205 206 205 206 206 206 210 212 213 216 214 208 205 199 197 198 195 198 203 194 182
306 307 307 307 309 311 313 314 315 316 316 317 319 319 318 319 320 319 319 322 324 316 299 299 307 303 288 273 269 280 303 322 315 280 252 238 236 238 233 232 235 231 218 213 219 230 235 237 242 239 229 225 229 227 220 215 212 210 210 209 209 209 205 202 207 207 205 205 204 204 208 209 208 210 209 205 204 204 202 201 198 199 200 193 183
303 303 302 302 302 305 308 311 312 313 314 315 317 319 318 318 320 319 317 318 322 319 301 293 299 301 289 273 266 269 274 324 29 1 312 258 236 235 231 225 226 222 205 207 216 217 222 233 239 236 235 236 244 248 233 224 221 214 205 203 206 206 204 204 206 206 203 201 200 201 204 206 207 208 207 206 206 205 205 202 199 200 199 199 199
302 302 304 303 301 302 305 306 308 310 311 312 313 316 317 317 318 319 317 319 323 321 305 292 293 290 281 273 268 260 249 241 3 16 2 353 219 215 221 217 214 210 203 209 215 211 216 230 232 225 230 233 243 256 235 221 227 221 209 205 208 207 205 207 209 207 201 196 195 197 198 202 205 204 202 203 205 205 207 203 199 200 198 195 200
305 311 313 309 306 306 304 301 302 304 306 307 309 313 315 314 317 320 319 318 321 321 309 293 289 284 273 262 247 230 229 235 245 344 18 23 51 94 134 160 166 181 203 212 211 201 204 218 217 212 215 220 230 236 219 211 218 218 215 215 212 208 206 209 214 214 206 198 195 197 199 202 204 205 203 201 200 200 204 205 200 198 195 193 199
309 312 309 305 303 302 300 298 298 300 304 305 306 311 313 312 316 322 322 318 317 318 312 298 288 279 269 257 236 219 219 222 219 210 71 40 51 63 73 81 80 73 99 178 198 197 201 210 208 201 197 207 214 207 204 212 212 209 216 218 210 206 206 207 212 218 217 209 200 198 200 201 201 203 204 202 202 203 204 204 202 198 194 194 200
307 302 297 296 296 297 297 297 294 293 299 301 301 308 310 309 315 321 322 318 314 315 315 307 291 273 264 256 241 239 243 236 214 206 202 152 77 70 68 67 62 58 66 79 112 169 197 206 203 200 202 212 216 201 199 212 213 210 217 220 216 215 216 218 220 222 229 235 229 215 203 194 192 199 202 201 205 212 212 207 203 197 192 192 199
307 303 296 291 292 297 299 297 292 290 294 295 293 299 304 306 315 321 321 318 316 315 314 308 293 270 258 252 245 243 240 221 190 181 185 177 137 109 97 86 75 67 65 68 74 87 106 136 176 195 202 208 209 200 201 211 215 217 218 217 220 223 225 233 236 232 236 246 254 256 236 205 204 217 218 213 210 214 217 213 210 204 192 194 204
305 306 304 299 298 298 297 298 297 295 296 294 287 290 299 305 315 320 318 320 321 318 312 303 289 270 257 250 242 235 221 194 177 163 152 151 145 138 134 115 96 79 69 66 69 79 86 93 122 166 192 205 205 200 201 206 212 220 224 221 227 230 229 230 231 234 240 236 234 247 250 238 231 228 226 227 223 224 225 220 219 218 205 204 210
301 303 304 303 302 298 293 295 297 297 298 294 286 286 293 303 314 318 317 321 322 318 313 301 283 269 259 244 227 222 209 185 177 168 153 148 143 138 134 115 101 95 95 94 86 79 77 83 94 107 136 183 197 201 206 210 215 225 233 236 237 234 230 231 233 237 239 230 225 235 240 237 236 237 234 232 235 242 238 225 222 225 224 222 221
298 298 299 299 300 299 294 292 293 294 295 292 285 284 290 301 312 316 317 322 322 317 313 301 278 264 254 230 206 208 204 183 174 169 159 155 147 137 133 123 115 119 127 119 99 75 62 63 76 87 93 115 152 179 196 207 218 231 238 243 245 243 242 243 239 235 235 235 237 243 243 238 237 237 236 233 233 241 245 235 225 223 227 233 236
300 300 299 298 296 295 293 291 290 289 291 289 284 283 289 300 311 314 317 322 320 316 314 305 280 257 240 216 198 209 212 200 194 190 178 173 163 147 141 142 138 134 129 124 112 95 79 58 54 67 77 87 100 115 131 150 177 222 243 248 253 254 247 241 236 230 231 235 239 243 245 244 241 238 237 234 230 235 244 244 237 232 232 235 241
301 300 298 296 295 292 290 291 291 291 291 287 280 279 287 299 309 313 319 321 317 316 321 317 285 233 210 198 199 213 214 206 201 197 188 184 179 170 159 149 142 128 107 106 111 107 99 74 60 71 72 50 56 75 80 69 66 44 4 339 325 267 235 234 234 232 231 233 235 239 242 244 244 241 238 237 236 237 240 237 230 229 230 231 236
298 293 290 294 295 289 287 290 292 290 289 285 278 277 285 297 307 315 321 320 312 316 332 334 281 181 175 181 193 199 193 184 179 174 162 151 153 164 168 157 140 126 108 99 99 98 92 72 61 71 74 19 25 51 64 58 54 41 5 354 3 351 274 259 246 236 236 237 239 243 244 243 244 243 241 242 243 241 238 231 221 218 225 233 240
299 288 289 295 294 286 287 292 291 286 283 282 277 276 282 294 307 316 321 315 304 312 342 3 88 169 173 182 188 182 176 170 161 147 135 131 127 130 145 153 153 150 141 120 103 102 101 83 52 61 73 13 2 28 46 47 49 51 33 351 332 306 300 308 295 253 245 244 244 248 251 249 247 244 239 238 238 234 232 229 222 218 222 230 235
301 294 293 295 292 289 290 291 286 282 283 282 276 273 280 293 307 316 318 308 297 309 348 13 28 181 190 190 179 172 170 165 156 143 133 133 130 121 120 126 140 154 157 158 145 128 119 106 82 88 99 52 337 355 21 31 35 38 42 49 30 275 277 283 286 282 268 253 249 251 252 250 248 245 240 236 236 235 234 236 233 228 228 230 231
301 300 296 292 291 293 293 290 286 283 284 283 276 272 279 292 304 314 315 305 295 311 347 10 30 183 201 197 179 170 162 153 151 146 139 133 128 124 122 120 124 132 141 154 153 141 132 120 112 118 119 119 294 323 343 357 10 26 49 81 124 218 252 269 273 270 268 263 262 262 259 256 253 250 246 242 241 239 237 238 238 235 233 231 230
295 296 297 293 291 290 289 287 286 285 283 284 280 275 280 291 303 312 312 301 296 317 344 11 36 168 207 191 173 172 169 158 151 145 143 137 125 122 120 115 121 128 132 143 147 140 142 143 131 126 117 113 162 238 275 290 23 74 90 98 108 145 199 251 269 269 267 265 269 275 278 273 265 259 255 251 249 248 244 240 240 239 238 236 237
293 295 298 294 289 288 288 286 285 284 284 288 285 277 280 290 301 312 309 292 291 319 334 357 13 7 211 186 176 185 188 175 158 151 157 156 144 145 143 121 129 135 130 141 151 142 147 155 144 133 112 87 127 173 156 150 155 143 131 130 132 148 241 289 293 290 287 283 281 283 285 282 276 271 268 263 257 255 253 251 249 249 247 245 243
294 295 296 292 289 289 291 290 288 286 286 289 285 275 278 286 297 312 306 272 269 316 328 339 357 9 65 151 166 184 190 190 179 169 177 177 158 145 144 151 189 189 159 152 162 157 156 162 155 143 120 83 81 133 142 145 157 167 173 185 211 264 291 298 299 298 297 292 285 283 285 287 286 284 281 280 277 271 267 265 263 260 256 251 246
295 294 293 293 291 291 288 283 285 290 289 289 285 272 273 281 289 308 308 261 252 294 314 324 350 16 57 79 62 122 171 185 182 161 174 200 213 188 155 117 174 191 184 180 186 190 198 205 199 186 180 161 123 143 157 164 168 174 183 194 206 234 261 275 284 290 291 288 281 276 275 279 284 287 284 281 283 281 278 277 277 276 273 268 262
298 295 295 293 291 295 294 284 287 294 291 289 285 268 266 277 284 299 306 263 246 270 296 314 346 17 44 44 30 31 60 71 73 95 116 160 229 214 218 262 263 214 222 232 232 241 256 259 251 222 208 214 219 209 207 212 210 206 209 214 224 240 255 267 278 285 287 285 279 275 272 270 271 275 273 269 267 265 267 273 276 277 278 278 277